Weather History for KCAD - July, 2013

Change the Weather History Date:

Tuesday, July 30, 2013

  Actual Average Record
Temperature  
Mean Temperature 60 °F -  
Max Temperature 76 °F 77 °F 134 °F (1997)
Min Temperature 45 °F 51 °F 38 °F (1971)
Degree Days  
Heating Degree Days 4    
Growing Degree Days 10 (Base 50)    
Moisture  
Dew Point 49 °F    
Average Humidity 65    
Maximum Humidity 92    
Minimum Humidity 35    
Precipitation  
Precipitation 0.00 in - - ()
Sea Level Pressure  
Sea Level Pressure 30.18 in    
Wind  
Wind Speed 1 mph (South)    
Max Wind Speed 8 mph    
Max Gust Speed -    
Visibility 7 miles    
Events Fog    
Averages and records for this station are not official NWS values.
T = Trace of Precipitation, MM = Missing Value Source: NWS Daily Summary

Daily Weather History Graph

Daily Weather History Graph

Search for Another Location

Airport or City:

Trip Planner

Search our weather history database for the weather conditions in past years. The results will help you decide how hot, cold, wet, or windy it might be!

Date:

Astronomy

Jul. 30, 2013 Rise Set
Actual Time 6:27 AM EDT 9:08 PM EDT
Civil Twilight 5:53 AM EDT 9:41 PM EDT
Nautical Twilight 5:11 AM EDT 10:23 PM EDT
Astronomical Twilight 4:23 AM EDT 11:11 PM EDT
Moon 12:46 AM EDT (7/30) 3:26 PM EDT (7/30)
Length of Visible Light 15h 47m
Length of Day
14h 41m
Last Quarter, 41% of the Moon is Illuminated
Jul 30
Last Quarter
Aug 6
New
Aug 14
First Quarter
Aug 20
Full
Aug 28
Last Quarter

Hourly Weather History & Observations

Time (EDT) Temp. Dew Point Humidity Pressure Visibility Wind Dir Wind Speed Gust Speed Precip Events Conditions
12:14 AM 51.4 °F 48.9 °F 91% 30.20 in 5.0 mi Calm Calm - N/A   Clear
12:35 AM 51.4 °F 49.1 °F 92% 30.20 in 1.2 mi Calm Calm - N/A   Mist
12:55 AM 51.4 °F 48.9 °F 91% 30.20 in 0.8 mi Calm Calm - N/A   Mist
1:14 AM 51.1 °F 48.2 °F 90% 30.20 in 10.0 mi Calm Calm - N/A   Clear
1:35 AM 49.1 °F 46.0 °F 89% 30.20 in 1.0 mi Calm Calm - N/A   Mist
1:55 AM 46.0 °F 43.3 °F 90% 30.20 in 2.0 mi Calm Calm - N/A   Clear
2:14 AM 49.1 °F 46.4 °F 90% 30.20 in 0.5 mi Calm Calm - N/A Fog Fog
2:35 AM 49.1 °F 45.9 °F 89% 30.20 in 10.0 mi Calm Calm - N/A   Clear
2:55 AM 45.5 °F 42.3 °F 88% 30.19 in 1.8 mi Calm Calm - N/A   Mist
3:14 AM 45.7 °F 42.8 °F 90% 30.19 in 0.2 mi Calm Calm - N/A Fog Fog
3:35 AM 47.8 °F 44.6 °F 89% 30.19 in 0.2 mi Calm Calm - N/A Fog Fog
3:55 AM 49.1 °F 45.5 °F 87% 30.19 in 0.2 mi Calm Calm - N/A Fog Fog
4:15 AM 47.1 °F 44.2 °F 90% 30.19 in 0.2 mi Calm Calm - N/A Fog Fog
4:35 AM 46.0 °F 42.8 °F 88% 30.20 in 0.2 mi Calm Calm - N/A Fog Fog
4:55 AM 45.7 °F 42.1 °F 87% 30.20 in 0.2 mi Calm Calm - N/A Fog Fog
5:15 AM 45.9 °F 43.2 °F 90% 30.20 in 0.2 mi Calm Calm - N/A Fog Fog
5:35 AM 46.8 °F 43.7 °F 89% 30.21 in 0.2 mi Calm Calm - N/A Fog Fog
5:55 AM 46.8 °F 43.9 °F 90% 30.20 in 0.2 mi Calm Calm - N/A Fog Fog
6:15 AM 45.7 °F 42.6 °F 89% 30.21 in 0.8 mi Calm Calm - N/A   Overcast
6:35 AM 45.5 °F 42.4 °F 89% 30.22 in 0.2 mi Calm Calm - N/A Fog Fog
6:55 AM 45.3 °F 42.4 °F 90% 30.22 in 0.2 mi Calm Calm - N/A Fog Fog
7:15 AM 47.3 °F 44.8 °F 91% 30.22 in 0.2 mi Calm Calm - N/A Fog Fog
7:35 AM 49.1 °F 45.9 °F 89% 30.23 in 0.5 mi Calm Calm - N/A Fog Fog
7:55 AM 51.4 °F 48.6 °F 90% 30.22 in 0.2 mi Calm Calm - N/A Fog Fog
8:15 AM 51.4 °F 48.7 °F 90% 30.22 in 1.8 mi Calm Calm - N/A   Mostly Cloudy
8:35 AM 54.7 °F 51.8 °F 90% 30.23 in 10.0 mi Calm Calm - N/A   Clear
8:55 AM 56.7 °F 53.4 °F 89% 30.22 in 10.0 mi Calm Calm - N/A   Clear
9:15 AM 60.1 °F 54.9 °F 83% 30.22 in 10.0 mi Calm Calm - N/A   Clear
9:35 AM 62.1 °F 52.3 °F 70% 30.22 in 10.0 mi Calm Calm - N/A   Clear
9:54 AM 64.9 °F 48.0 °F 54% 30.22 in 10.0 mi South 3.5 mph - N/A   Clear
10:15 AM 69.1 °F 50.2 °F 51% 30.21 in 10.0 mi SSE 5.8 mph - N/A   Clear
10:35 AM 71.1 °F 53.1 °F 53% 30.21 in 10.0 mi SSW 6.9 mph - N/A   Clear
10:54 AM 69.1 °F 49.3 °F 49% 30.21 in 10.0 mi SSW 6.9 mph - N/A   Clear
11:15 AM 70.2 °F 50.7 °F 50% 30.22 in 10.0 mi SSW 4.6 mph - N/A   Clear
11:35 AM 71.6 °F 50.7 °F 48% 30.22 in 10.0 mi SSE 4.6 mph - N/A   Clear
11:55 AM 71.6 °F 51.8 °F 50% 30.22 in 10.0 mi SSE 4.6 mph - N/A   Clear
12:15 PM 71.6 °F 51.1 °F 48% 30.21 in 10.0 mi South 4.6 mph - N/A   Clear
12:35 PM 71.6 °F 50.5 °F 47% 30.21 in 10.0 mi SE 4.6 mph - N/A   Clear
12:54 PM 71.6 °F 50.5 °F 47% 30.21 in 10.0 mi WSW 4.6 mph - N/A   Scattered Clouds
1:15 PM 71.6 °F 49.6 °F 46% 30.21 in 10.0 mi Calm Calm - N/A   Mostly Cloudy
1:35 PM 72.0 °F 48.7 °F 44% 30.21 in 10.0 mi Calm Calm - N/A   Overcast
1:54 PM 72.9 °F 47.8 °F 41% 30.20 in 10.0 mi WSW 4.6 mph - N/A   Mostly Cloudy
2:15 PM 73.2 °F 48.2 °F 41% 30.20 in 10.0 mi WSW 3.5 mph - N/A   Overcast
2:35 PM 72.1 °F 47.8 °F 42% 30.19 in 10.0 mi Calm Calm - N/A   Mostly Cloudy
2:55 PM 74.7 °F 48.9 °F 40% 30.18 in 10.0 mi Calm Calm - N/A   Mostly Cloudy
3:15 PM 73.8 °F 48.7 °F 41% 30.17 in 10.0 mi SSW 8.1 mph - N/A   Mostly Cloudy
3:35 PM 74.7 °F 49.1 °F 40% 30.17 in 10.0 mi SSE 5.8 mph - N/A   Scattered Clouds
3:55 PM 73.9 °F 49.1 °F 41% 30.17 in 10.0 mi ESE 3.5 mph - N/A   Scattered Clouds
4:15 PM 76.1 °F 48.4 °F 38% 30.17 in 10.0 mi Calm Calm - N/A   Scattered Clouds
4:35 PM 76.6 °F 48.6 °F 37% 30.16 in 10.0 mi SSW 5.8 mph - N/A   Scattered Clouds
4:55 PM 76.6 °F 48.2 °F 37% 30.15 in 10.0 mi ESE 8.1 mph - N/A   Clear
5:15 PM 76.6 °F 46.8 °F 35% 30.15 in 10.0 mi East 6.9 mph - N/A   Scattered Clouds
5:35 PM 76.6 °F 49.3 °F 38% 30.14 in 10.0 mi SSW 6.9 mph - N/A   Mostly Cloudy
5:55 PM 76.6 °F 49.5 °F 38% 30.14 in 10.0 mi South 6.9 mph - N/A   Scattered Clouds
6:15 PM 75.7 °F 49.3 °F 39% 30.14 in 10.0 mi SSW 3.5 mph - N/A   Mostly Cloudy
6:35 PM 74.8 °F 48.4 °F 39% 30.14 in 10.0 mi South 5.8 mph - N/A   Overcast
6:55 PM 74.3 °F 47.7 °F 39% 30.13 in 10.0 mi Calm Calm - N/A   Mostly Cloudy
7:15 PM 74.3 °F 48.7 °F 40% 30.13 in 10.0 mi South 5.8 mph - N/A   Overcast
7:35 PM 74.3 °F 49.6 °F 42% 30.13 in 10.0 mi SE 6.9 mph - N/A   Mostly Cloudy
7:55 PM 72.9 °F 49.8 °F 44% 30.13 in 10.0 mi SSE 5.8 mph - N/A   Mostly Cloudy
8:15 PM 71.6 °F 49.8 °F 46% 30.13 in 10.0 mi SSE 3.5 mph - N/A   Mostly Cloudy
8:34 PM 71.6 °F 50.9 °F 48% 30.13 in 10.0 mi SSE 5.8 mph - N/A   Scattered Clouds
8:55 PM 71.6 °F 53.4 °F 53% 30.13 in 10.0 mi Calm Calm - N/A   Scattered Clouds
9:15 PM 71.6 °F 54.3 °F 54% 30.13 in 10.0 mi Calm Calm - N/A   Clear
9:34 PM 70.0 °F 53.2 °F 55% 30.13 in 10.0 mi Calm Calm - N/A   Scattered Clouds
9:55 PM 64.9 °F 52.7 °F 64% 30.13 in 10.0 mi Calm Calm - N/A   Scattered Clouds
10:14 PM 62.4 °F 53.1 °F 71% 30.14 in 10.0 mi Calm Calm - N/A   Scattered Clouds
10:35 PM 59.2 °F 53.1 °F 80% 30.14 in 10.0 mi Calm Calm - N/A   Mostly Cloudy
10:55 PM 61.7 °F 55.0 °F 79% 30.14 in 10.0 mi Calm Calm - N/A   Overcast
11:14 PM 61.7 °F 55.6 °F 80% 30.13 in 10.0 mi Calm Calm - N/A   Overcast
11:35 PM 61.7 °F 54.7 °F 78% 30.13 in 10.0 mi Calm Calm - N/A   Scattered Clouds
11:55 PM 59.0 °F 53.8 °F 83% 30.13 in 10.0 mi Calm Calm - N/A   Scattered Clouds